Glen Aubrey, NY

5:47 AM EDT on September 29, 2016 (GMT -0400)
Binghamton Regional-Link

Weather History for KBGM - April, 2014

Change the Weather History Date:

Wednesday, April 2, 2014

  Actual Average Record
Temperature  
Mean Temperature 48 °F 39 °F  
Max Temperature 59 °F 48 °F 79 °F (2010)
Min Temperature 37 °F 31 °F 19 °F (2013)
Degree Days  
Heating Degree Days 17 26  
Month to date heating degree days 41 52  
Since 1 July heating degree days 6712 6248  
Cooling Degree Days 0 0  
Month to date cooling degree days 0 0  
Year to date cooling degree days 0 0  
Moisture  
Dew Point 31 °F    
Average Humidity 50    
Maximum Humidity 70    
Minimum Humidity 30    
Precipitation  
Precipitation 0.00 in 0.12 in 1.57 in (2005)
Month to date precipitation 0.00 0.23  
Year to date precipitation 8.37 7.98  
Snow  
Snow 0.00 in 0.30 in 1.80 in (1972)
Month to date snowfall 0.0 0.5  
Since 1 July snowfall 84.4 79.5  
Snow Depth 0.00 in    
Sea Level Pressure  
Sea Level Pressure 30.05 in    
Wind  
Wind Speed 6 mph (WNW)    
Max Wind Speed 16 mph    
Max Gust Speed 22 mph    
Visibility 10 miles    
Events      
T = Trace of Precipitation, MM = Missing Value Source: NWS Daily Summary

Daily Weather History Graph

Daily Weather History Graph

Search for Another Location

Airport or City:

Trip Planner

Search our weather history database for the weather conditions in past years. The results will help you decide how hot, cold, wet, or windy it might be!

Date:

Astronomy

Apr. 02, 2014 Rise Set
Actual Time 6:44 AM EDT 7:30 PM EDT
Civil Twilight 6:16 AM EDT 7:59 PM EDT
Nautical Twilight 5:42 AM EDT 8:32 PM EDT
Astronomical Twilight 5:08 AM EDT 9:07 PM EDT
Moon 8:24 AM EDT (4/2) 10:55 PM EDT (4/2)
Length of Visible Light 13h 42m
Length of Day
12h 45m
Waxing Crescent, 10% of the Moon is Illuminated
Apr 2
Waxing Crescent
Apr 7
First Quarter
Apr 15
Full
Apr 22
Last Quarter
Apr 29
New

Hourly Weather History & Observations

Time (EDT) Temp. Windchill Dew Point Humidity Pressure Visibility Wind Dir Wind Speed Gust Speed Precip Events Conditions
12:53 AM 45.0 °F 42.6 °F 30.9 °F 58% 29.96 in 10.0 mi NW 4.6 mph - N/A   Clear
1:53 AM 44.1 °F 41.5 °F 30.9 °F 60% 29.96 in 10.0 mi South 4.6 mph - N/A   Clear
2:53 AM 44.1 °F 40.8 °F 30.9 °F 60% 29.97 in 10.0 mi SSW 5.8 mph - N/A   Clear
3:53 AM 43.0 °F 40.3 °F 30.9 °F 62% 29.99 in 10.0 mi West 4.6 mph - N/A   Clear
4:53 AM 42.1 °F 38.4 °F 30.9 °F 65% 30.02 in 10.0 mi WNW 5.8 mph - N/A   Clear
5:53 AM 42.1 °F 40.2 °F 30.9 °F 65% 30.01 in 10.0 mi NW 3.5 mph - N/A   Clear
6:53 AM 41.0 °F - 30.0 °F 65% 30.02 in 10.0 mi Calm Calm - N/A   Clear
8:53 AM 39.0 °F 34.8 °F 30.9 °F 73% 30.09 in 10.0 mi NNW 5.8 mph - N/A   Clear
9:53 AM 41.0 °F 39.0 °F 32.0 °F 70% 30.10 in 10.0 mi WSW 3.5 mph - N/A   Overcast
10:04 AM 42.8 °F 40.1 °F 33.8 °F 70% 30.07 in 10.0 mi WNW 4.6 mph - N/A   Overcast
10:53 AM 44.1 °F 40.1 °F 33.1 °F 65% 30.10 in 10.0 mi West 6.9 mph - N/A   Overcast
11:53 AM 50.0 °F - 34.0 °F 54% 30.08 in 10.0 mi West 5.8 mph - N/A   Mostly Cloudy
12:53 PM 53.1 °F - 33.1 °F 47% 30.06 in 10.0 mi West 8.1 mph - N/A   Scattered Clouds
1:53 PM 54.0 °F - 32.0 °F 43% 30.05 in 10.0 mi Variable 5.8 mph - N/A   Clear
2:53 PM 55.9 °F - 30.0 °F 37% 30.04 in 10.0 mi WSW 8.1 mph - N/A   Clear
3:53 PM 57.0 °F - 30.0 °F 36% 30.04 in 10.0 mi Calm Calm - N/A   Clear
4:53 PM 57.9 °F - 27.0 °F 31% 30.04 in 10.0 mi NW 8.1 mph - N/A   Clear
5:53 PM 57.2 °F - 26.6 °F 31% 30.04 in 10.0 mi North 9.2 mph - N/A   Clear
6:53 PM 53.1 °F - 28.9 °F 40% 30.07 in 10.0 mi NNW 10.4 mph - N/A   Clear
7:53 PM 48.0 °F - 28.9 °F 48% 30.09 in 10.0 mi NNW 11.5 mph - N/A   Clear
8:53 PM 45.0 °F 40.1 °F 30.0 °F 56% 30.11 in 10.0 mi NNW 9.2 mph - N/A   Clear
9:53 PM 41.0 °F 35.2 °F 30.0 °F 65% 30.12 in 10.0 mi North 9.2 mph - N/A   Clear
10:53 PM 39.0 °F 35.7 °F 28.9 °F 67% 30.14 in 10.0 mi North 4.6 mph - N/A   Clear
11:53 PM 37.9 °F 33.5 °F 27.0 °F 65% 30.14 in 10.0 mi NNW 5.8 mph - N/A   Clear